Weather Roundup
Issued by NWS Springfield, MO

Home | Current Version | Previous Version | Text Only | Print | Product List | Glossary On
Versions: 1 2 3 4 5 6 7 8 9 10 11 12 13 14 15 16 17 18 19 20 21 22 23 24 25 26 27 28 29 30 31 32 33 34 35 36 37 38 39 40 41 42 43 44 45 46 47 48 49 50
000
NZUS99 KSGF 210007
HRRSGF

HOURLY WEATHER
NATIONAL WEATHER SERVICE SPRINGFIELD MO
700 PM CDT SAT SEP 20 2014

......SGF CWA......

CITY           SKY/WX    TMP DP  RH WIND       PRES   REMARKS
SPRINGFIELD    MOCLDY    79  68  69 SW5       29.99F
6HR MIN TEMP:  79; 6HR MAX TEMP:  85;

JOPLIN         PTCLDY    80  69  69 SW9       29.98F
6HR MIN TEMP:  80; 6HR MAX TEMP:  85;

WEST PLAINS    PTCLDY    79  68  69 SW3       30.01F
6HR MIN TEMP:  79; 6HR MAX TEMP:  85;

ROLLA          MOCLDY    76  67  73 W6        29.95S
6HR MIN TEMP:  76; 6HR MAX TEMP:  84;

OSAGE BEACH    PTCLDY    77  68  73 CALM      29.95F
BRANSON        MOCLDY    81  68  65 CALM      30.03R

......SURROUNDING SGF CWA......

CITY           SKY/WX    TMP DP  RH WIND       PRES   REMARKS
CHANUTE        MOCLDY    82  71  69 SW10      29.95F
PARSONS        PTCLDY    81  71  71 S6        29.98S
EMPORIA        CLOUDY    78  69  73 NW13      29.95S
GROVE OK       CLEAR     81  70  69 CALM      30.00R
ROGERS AR      CLEAR     79  65  62 SW3       30.03R
SILOAM SPRINGS CLEAR     79  66  65 SW3       30.02S
HARRISON AR    CLEAR     78  69  73 CALM      30.02R
NEAR YELLVILLE PTCLDY    82  64  54 CALM      29.99R

......KANSAS AND MISSOURI......

CITY           SKY/WX    TMP DP  RH WIND       PRES   REMARKS
KANSAS CTY INT PTCLDY    77  71  82 SW6       29.93S
DOWNTOWN KC    PTCLDY    81  69  67 W5        29.91R
COLUMBIA       PTCLDY    77  69  76 SW8       29.94F
SEDALIA        MOCLDY    78  70  76 SW6       29.94F
ST JOSEPH      CLEAR     77  68  73 SW5       29.92S
ST LOUIS       MOCLDY    83  67  58 W9        29.92R
SPIRIT OF STL  PTCLDY    78  68  71 CALM      29.91R
KIRKSVILLE     PTCLDY    76  71  85 W3        29.90S
WICHITA        PTCLDY    88  60  38 SW8       29.94S
TOPEKA         MOCLDY    76  73  91 CALM      29.93S
OLATHE         MOCLDY    77  70  79 S5        29.93S

......TENNESSEE......

CITY           SKY/WX    TMP DP  RH WIND       PRES   REMARKS
MEMPHIS        MOCLDY    83  65  54 S3        29.97F
NASHVILLE      PTCLDY    80  64  58 CALM      30.00R

......ARKANSAS.......

CITY           SKY/WX    TMP DP  RH WIND       PRES   REMARKS
FAYETTEVILLE   CLEAR     78  67  68 SW3       30.01R
FT SMITH       CLEAR     83  66  56 W5        29.96S
LITTLE ROCK    PTCLDY    83  68  60 SW3       29.95F

......OKLAHOMA.......

CITY           SKY/WX    TMP DP  RH WIND       PRES   REMARKS
TULSA          PTCLDY    85  67  54 S8        29.96S
PONCA CITY     CLEAR     86  65  49 S7        29.95R
MCALESTER      CLEAR     84  67  56 SE3       29.98R
OKLAHOMA CITY  PTCLDY    84  67  56 SE7       29.97R

......IOWA............

CITY           SKY/WX    TMP DP  RH WIND       PRES   REMARKS
DES MOINES     PTCLDY    78  58  49 W9        29.86R
QUAD CITIES    LGT RAIN  73  68  84 W8        29.81S

......ILLINOIS........

CITY           SKY/WX    TMP DP  RH WIND       PRES   REMARKS
QUINCY         PTCLDY    75  71  87 W3        29.88S
CHICAGO        PTCLDY    73  63  70 SW5       29.80R



USA.gov is the U.S. government's official web portal to all federal, state and local government web resources and services.